TimeEST,TemperatureF,Dew PointF,Humidity,Sea Level PressureIn,VisibilityMPH,Wind Direction,Wind SpeedMPH,Gust SpeedMPH,PrecipitationIn,Events,Conditions,WindDirDegrees,DateUTC
12:15 AM,27.1,21.9,81,30.09,7.0,NNW,11.5,-,N/A,Snow,Light Snow,330,2013-03-03 05:15:00
12:35 AM,27.1,22.1,81,30.09,7.0,NW,11.5,-,N/A,Snow,Light Snow,310,2013-03-03 05:35:00
12:55 AM,27.0,21.6,80,30.09,10.0,NW,8.1,-,N/A,Snow,Light Snow,320,2013-03-03 05:55:00
1:15 AM,26.8,20.7,78,30.09,10.0,NW,9.2,-,N/A,,Overcast,310,2013-03-03 06:15:00
1:35 AM,27.0,19.6,74,30.09,10.0,NW,8.1,-,N/A,,Overcast,310,2013-03-03 06:35:00
1:55 AM,27.0,19.9,75,30.09,10.0,NW,6.9,-,N/A,,Overcast,320,2013-03-03 06:55:00
2:35 AM,26.6,18.5,71,30.09,10.0,NW,10.4,-,N/A,,Overcast,310,2013-03-03 07:35:00
2:55 AM,26.6,17.1,67,30.09,10.0,NW,9.2,-,N/A,,Overcast,320,2013-03-03 07:55:00
3:15 AM,26.2,16.5,67,30.09,10.0,NW,8.1,-,N/A,Snow,Light Snow,320,2013-03-03 08:15:00
3:35 AM,25.7,17.4,71,30.08,7.0,NW,9.2,-,N/A,Snow,Light Snow,310,2013-03-03 08:35:00
3:55 AM,25.7,17.8,72,30.08,10.0,NW,6.9,-,N/A,Snow,Light Snow,310,2013-03-03 08:55:00
4:15 AM,25.7,17.8,72,30.08,10.0,NW,6.9,-,N/A,,Overcast,310,2013-03-03 09:15:00
4:35 AM,25.7,17.6,71,30.07,10.0,NW,8.1,-,N/A,Snow,Light Snow,310,2013-03-03 09:35:00
4:55 AM,25.7,18.5,74,30.07,10.0,WNW,4.6,-,N/A,Snow,Light Snow,300,2013-03-03 09:55:00
5:15 AM,25.7,18.1,73,30.07,10.0,WNW,5.8,-,N/A,,Overcast,300,2013-03-03 10:15:00
5:35 AM,25.7,18.3,74,30.07,10.0,NW,6.9,-,N/A,,Overcast,310,2013-03-03 10:35:00
5:55 AM,25.7,18.1,73,30.07,10.0,NW,8.1,-,N/A,,Overcast,310,2013-03-03 10:55:00
6:15 AM,25.7,18.5,74,30.08,10.0,NW,5.8,-,N/A,,Overcast,310,2013-03-03 11:15:00
6:35 AM,25.5,18.5,75,30.08,10.0,WNW,5.8,-,N/A,,Overcast,300,2013-03-03 11:35:00
6:55 AM,25.2,18.3,75,30.08,10.0,WNW,6.9,-,N/A,,Overcast,300,2013-03-03 11:55:00
7:15 AM,24.8,18.1,76,30.09,10.0,WNW,6.9,-,N/A,,Overcast,300,2013-03-03 12:15:00
7:55 AM,23.4,18.0,80,30.09,10.0,WNW,5.8,-,N/A,,Mostly Cloudy,290,2013-03-03 12:55:00
8:15 AM,23.4,18.1,80,30.10,10.0,WNW,6.9,-,N/A,,Mostly Cloudy,290,2013-03-03 13:15:00
8:35 AM,23.5,17.6,78,30.11,10.0,WNW,5.8,-,N/A,,Overcast,300,2013-03-03 13:35:00
8:55 AM,24.1,16.7,73,30.11,10.0,NW,6.9,-,N/A,,Overcast,310,2013-03-03 13:55:00
9:15 AM,24.6,16.5,71,30.11,10.0,NW,10.4,17.3,N/A,,Overcast,320,2013-03-03 14:15:00
9:35 AM,25.0,16.3,70,30.11,10.0,NW,11.5,16.1,N/A,,Overcast,310,2013-03-03 14:35:00
9:55 AM,25.7,16.5,68,30.11,10.0,WNW,10.4,-,N/A,,Overcast,300,2013-03-03 14:55:00
10:15 AM,27.9,18.1,67,30.11,10.0,WNW,9.2,-,N/A,,Mostly Cloudy,290,2013-03-03 15:15:00
10:35 AM,27.0,17.6,68,30.10,10.0,WNW,9.2,-,N/A,,Mostly Cloudy,300,2013-03-03 15:35:00
10:55 AM,28.2,18.1,66,30.10,10.0,NW,8.1,-,N/A,,Mostly Cloudy,310,2013-03-03 15:55:00
11:15 AM,28.4,17.4,63,30.11,10.0,NW,8.1,-,N/A,,Mostly Cloudy,310,2013-03-03 16:15:00
11:35 AM,28.9,18.9,66,30.10,10.0,NW,8.1,-,N/A,,Mostly Cloudy,320,2013-03-03 16:35:00
11:55 AM,28.6,18.1,65,30.10,7.0,NW,8.1,-,N/A,Snow,Light Snow,310,2013-03-03 16:55:00
12:15 PM,29.3,19.8,68,30.09,10.0,NW,4.6,-,N/A,Snow,Light Snow,320,2013-03-03 17:15:00
12:35 PM,29.7,19.0,65,30.09,10.0,WNW,6.9,-,N/A,,Mostly Cloudy,290,2013-03-03 17:35:00
12:55 PM,30.2,18.9,63,30.08,10.0,West,6.9,-,N/A,,Overcast,280,2013-03-03 17:55:00
1:15 PM,31.1,18.7,60,30.08,10.0,WNW,10.4,-,N/A,,Overcast,290,2013-03-03 18:15:00
1:35 PM,30.4,18.0,60,30.07,10.0,NW,8.1,-,N/A,,Overcast,320,2013-03-03 18:35:00
1:55 PM,30.9,17.2,57,30.07,10.0,NW,8.1,-,N/A,,Overcast,320,2013-03-03 18:55:00
2:15 PM,30.6,17.6,59,30.07,10.0,NW,8.1,-,N/A,,Overcast,310,2013-03-03 19:15:00
2:35 PM,31.8,17.4,55,30.06,10.0,West,10.4,-,N/A,,Overcast,280,2013-03-03 19:35:00
2:55 PM,31.1,16.5,55,30.06,10.0,NW,8.1,-,N/A,,Overcast,320,2013-03-03 19:55:00
3:35 PM,31.3,18.0,58,30.06,10.0,WNW,8.1,-,N/A,,Mostly Cloudy,290,2013-03-03 20:35:00
3:55 PM,32.5,17.2,53,30.06,10.0,West,10.4,-,N/A,,Mostly Cloudy,280,2013-03-03 20:55:00
4:35 PM,32.2,18.5,57,30.06,10.0,WNW,8.1,-,N/A,,Overcast,290,2013-03-03 21:35:00
5:15 PM,32.0,16.7,53,30.06,10.0,WNW,6.9,-,N/A,,Overcast,290,2013-03-03 22:15:00
5:35 PM,32.0,16.7,53,30.06,10.0,WNW,5.8,-,N/A,,Mostly Cloudy,300,2013-03-03 22:35:00
5:55 PM,32.0,16.2,52,30.07,10.0,West,4.6,-,N/A,,Overcast,280,2013-03-03 22:55:00
6:15 PM,31.6,17.1,55,30.06,10.0,West,4.6,-,N/A,,Overcast,280,2013-03-03 23:15:00
6:35 PM,31.1,18.1,59,30.06,10.0,West,5.8,-,N/A,,Mostly Cloudy,270,2013-03-03 23:35:00
6:55 PM,30.2,18.0,60,30.06,10.0,WNW,3.5,-,N/A,,Scattered Clouds,290,2013-03-03 23:55:00
7:15 PM,29.5,18.1,63,30.07,10.0,West,4.6,-,N/A,,Scattered Clouds,270,2013-03-04 00:15:00
7:35 PM,29.3,18.5,64,30.07,10.0,West,3.5,-,N/A,,Scattered Clouds,260,2013-03-04 00:35:00
7:55 PM,28.4,18.5,66,30.07,10.0,Calm,Calm,-,N/A,,Clear,0,2013-03-04 00:55:00
8:15 PM,28.2,19.0,68,30.07,10.0,Calm,Calm,-,N/A,,Clear,0,2013-03-04 01:15:00
8:35 PM,28.2,20.8,74,30.07,10.0,Calm,Calm,-,N/A,,Clear,0,2013-03-04 01:35:00
8:55 PM,27.5,20.5,75,30.08,10.0,North,3.5,-,N/A,,Clear,360,2013-03-04 01:55:00
9:15 PM,27.3,20.7,76,30.08,10.0,NNW,3.5,-,N/A,,Clear,340,2013-03-04 02:15:00
9:35 PM,26.6,20.7,78,30.08,10.0,Calm,Calm,-,N/A,,Clear,0,2013-03-04 02:35:00
9:55 PM,25.7,19.2,76,30.08,10.0,Calm,Calm,-,N/A,,Clear,0,2013-03-04 02:55:00
10:15 PM,25.3,20.1,81,30.08,10.0,Calm,Calm,-,N/A,,Clear,0,2013-03-04 03:15:00
10:35 PM,24.8,20.5,84,30.08,10.0,Calm,Calm,-,N/A,,Clear,0,2013-03-04 03:35:00
10:55 PM,24.8,20.8,85,30.08,10.0,Calm,Calm,-,N/A,,Clear,0,2013-03-04 03:55:00
11:15 PM,24.3,20.3,85,30.08,10.0,Calm,Calm,-,N/A,,Clear,0,2013-03-04 04:15:00
11:35 PM,23.9,20.3,86,30.08,10.0,Calm,Calm,-,N/A,,Clear,0,2013-03-04 04:35:00
11:55 PM,23.9,20.3,86,30.09,10.0,Calm,Calm,-,N/A,,Clear,0,2013-03-04 04:55:00